Time,TemperatureF,DewpointF,PressureIn,WindDirection,WindDirectionDegrees,WindSpeedMPH,WindSpeedGustMPH,Humidity,HourlyPrecipIn,Conditions,Clouds,dailyrainin,SoftwareType,DateUTC
2013-01-05 00:00:00,30.3,22.7,29.86,WSW,257,3.0,3.0,73,0.00,,,0.02,Wunderground v.1.15,2013-01-05 05:00:00,
2013-01-05 00:02:00,30.3,22.7,29.86,WSW,252,3.0,4.0,73,0.00,,,0.02,Wunderground v.1.15,2013-01-05 05:02:00,
2013-01-05 00:08:00,30.2,22.6,29.86,West,265,2.0,8.0,73,0.00,,,0.02,Wunderground v.1.15,2013-01-05 05:08:00,
2013-01-05 00:10:00,30.2,22.6,29.86,West,270,2.0,8.0,73,0.00,,,0.02,Wunderground v.1.15,2013-01-05 05:10:00,
2013-01-05 00:16:00,30.2,22.6,29.86,West,267,3.0,8.0,73,0.00,,,0.02,Wunderground v.1.15,2013-01-05 05:16:00,
2013-01-05 00:22:00,30.1,22.5,29.86,West,267,3.0,9.0,73,0.00,,,0.02,Wunderground v.1.15,2013-01-05 05:22:00,
2013-01-05 00:28:00,30.1,22.5,29.86,West,261,3.0,9.0,73,0.00,,,0.02,Wunderground v.1.15,2013-01-05 05:28:00,
2013-01-05 00:34:00,30.1,22.5,29.86,WSW,256,3.0,9.0,73,0.00,,,0.02,Wunderground v.1.15,2013-01-05 05:34:00,
2013-01-05 00:40:00,30.0,22.4,29.86,West,265,3.0,9.0,73,0.00,,,0.02,Wunderground v.1.15,2013-01-05 05:40:00,
2013-01-05 00:46:00,30.0,22.4,29.86,West,260,3.0,9.0,73,0.00,,,0.02,Wunderground v.1.15,2013-01-05 05:46:00,
2013-01-05 00:52:00,29.9,22.3,29.86,West,262,4.0,5.0,73,0.00,,,0.02,Wunderground v.1.15,2013-01-05 05:52:00,
2013-01-05 00:58:00,30.0,22.4,29.86,West,279,4.0,10.0,73,0.00,,,0.02,Wunderground v.1.15,2013-01-05 05:58:00,
2013-01-05 01:04:00,30.0,22.4,29.87,West,269,4.0,10.0,73,0.00,,,0.02,Wunderground v.1.15,2013-01-05 06:04:00,
2013-01-05 01:10:00,30.0,22.4,29.87,WSW,255,4.0,10.0,73,0.00,,,0.02,Wunderground v.1.15,2013-01-05 06:10:00,
2013-01-05 01:16:00,30.0,22.4,29.87,WSW,246,4.0,10.0,73,0.00,,,0.02,Wunderground v.1.15,2013-01-05 06:16:00,
2013-01-05 01:22:00,30.0,22.4,29.88,WSW,257,4.0,12.0,73,0.00,,,0.02,Wunderground v.1.15,2013-01-05 06:22:00,
2013-01-05 01:28:00,30.0,22.1,29.88,West,277,4.0,12.0,72,0.00,,,0.02,Wunderground v.1.15,2013-01-05 06:28:00,
2013-01-05 01:34:00,30.0,22.1,29.88,WSW,255,4.0,12.0,72,0.00,,,0.02,Wunderground v.1.15,2013-01-05 06:34:00,
2013-01-05 01:40:00,30.0,22.1,29.88,West,270,4.0,12.0,72,0.00,,,0.02,Wunderground v.1.15,2013-01-05 06:40:00,
2013-01-05 01:46:00,30.0,22.1,29.89,West,278,4.0,12.0,72,0.00,,,0.02,Wunderground v.1.15,2013-01-05 06:46:00,
2013-01-05 01:52:00,30.0,22.1,29.89,West,268,5.0,11.0,72,0.00,,,0.02,Wunderground v.1.15,2013-01-05 06:52:00,
2013-01-05 01:58:00,30.1,22.2,29.89,West,281,4.0,11.0,72,0.00,,,0.02,Wunderground v.1.15,2013-01-05 06:58:00,
2013-01-05 02:04:00,30.1,21.8,29.90,WNW,286,4.0,11.0,71,0.00,,,0.02,Wunderground v.1.15,2013-01-05 07:04:00,
2013-01-05 02:10:00,30.2,21.9,29.90,WNW,300,5.0,5.0,71,0.00,,,0.02,Wunderground v.1.15,2013-01-05 07:10:00,
2013-01-05 02:16:00,30.2,21.9,29.90,West,271,5.0,11.0,71,0.00,,,0.02,Wunderground v.1.15,2013-01-05 07:16:00,
2013-01-05 02:22:00,30.3,22.0,29.91,West,274,5.0,7.0,71,0.00,,,0.02,Wunderground v.1.15,2013-01-05 07:22:00,
2013-01-05 02:28:00,30.3,22.0,29.91,West,281,5.0,12.0,71,0.00,,,0.02,Wunderground v.1.15,2013-01-05 07:28:00,
2013-01-05 02:34:00,30.4,21.8,29.92,West,267,4.0,12.0,70,0.00,,,0.02,Wunderground v.1.15,2013-01-05 07:34:00,
2013-01-05 02:40:00,30.5,21.9,29.92,West,265,4.0,12.0,70,0.00,,,0.02,Wunderground v.1.15,2013-01-05 07:40:00,
2013-01-05 02:46:00,30.5,21.9,29.92,West,276,4.0,12.0,70,0.00,,,0.02,Wunderground v.1.15,2013-01-05 07:46:00,
2013-01-05 02:52:00,30.6,22.0,29.92,WSW,250,5.0,7.0,70,0.00,,,0.02,Wunderground v.1.15,2013-01-05 07:52:00,
2013-01-05 02:58:00,30.8,22.2,29.92,SW,228,5.0,11.0,70,0.00,,,0.02,Wunderground v.1.15,2013-01-05 07:58:00,
2013-01-05 03:04:00,30.8,21.8,29.92,West,268,3.0,11.0,69,0.00,,,0.02,Wunderground v.1.15,2013-01-05 08:04:00,
2013-01-05 03:10:00,30.9,21.9,29.92,West,280,4.0,11.0,69,0.00,,,0.02,Wunderground v.1.15,2013-01-05 08:10:00,
2013-01-05 03:16:00,31.0,22.0,29.92,West,269,5.0,11.0,69,0.00,,,0.02,Wunderground v.1.15,2013-01-05 08:16:00,
2013-01-05 03:22:00,31.0,22.0,29.92,West,278,5.0,11.0,69,0.00,,,0.00,Wunderground v.1.15,2013-01-05 08:22:00,
2013-01-05 03:28:00,31.2,21.9,29.92,SW,231,4.0,11.0,68,0.00,,,0.00,Wunderground v.1.15,2013-01-05 08:28:00,
2013-01-05 03:34:00,31.3,22.0,29.92,WSW,247,4.0,11.0,68,0.00,,,0.00,Wunderground v.1.15,2013-01-05 08:34:00,
2013-01-05 03:40:00,31.4,22.1,29.91,West,259,5.0,5.0,68,0.00,,,0.00,Wunderground v.1.15,2013-01-05 08:40:00,
2013-01-05 03:46:00,31.5,22.1,29.92,WSW,251,4.0,11.0,68,0.00,,,0.00,Wunderground v.1.15,2013-01-05 08:46:00,
2013-01-05 03:52:00,31.6,21.9,29.91,WSW,251,5.0,6.0,67,0.00,,,0.00,Wunderground v.1.15,2013-01-05 08:52:00,
2013-01-05 03:58:00,31.6,21.9,29.91,SW,235,6.0,14.0,67,0.00,,,0.00,Wunderground v.1.15,2013-01-05 08:58:00,
2013-01-05 04:04:00,31.5,21.8,29.92,West,273,5.0,13.0,67,0.00,,,0.00,Wunderground v.1.15,2013-01-05 09:04:00,
2013-01-05 04:10:00,31.5,21.8,29.92,WSW,240,5.0,5.0,67,0.00,,,0.00,Wunderground v.1.15,2013-01-05 09:10:00,
2013-01-05 04:16:00,31.4,21.7,29.92,WSW,244,5.0,14.0,67,0.00,,,0.00,Wunderground v.1.15,2013-01-05 09:16:00,
2013-01-05 04:22:00,31.4,21.7,29.92,West,266,5.0,9.0,67,0.00,,,0.00,Wunderground v.1.15,2013-01-05 09:22:00,
2013-01-05 04:28:00,31.3,21.6,29.92,SW,223,6.0,15.0,67,0.00,,,0.00,Wunderground v.1.15,2013-01-05 09:28:00,
2013-01-05 04:34:00,31.3,22.0,29.92,West,273,6.0,15.0,68,0.00,,,0.00,Wunderground v.1.15,2013-01-05 09:34:00,
2013-01-05 04:40:00,31.3,22.0,29.93,WSW,254,6.0,15.0,68,0.00,,,0.00,Wunderground v.1.15,2013-01-05 09:40:00,
2013-01-05 04:46:00,31.2,21.9,29.94,SW,219,6.0,15.0,68,0.00,,,0.00,Wunderground v.1.15,2013-01-05 09:46:00,
2013-01-05 04:52:00,31.2,21.9,29.94,SW,235,4.0,14.0,68,0.00,,,0.00,Wunderground v.1.15,2013-01-05 09:52:00,
2013-01-05 04:58:00,31.2,21.9,29.94,SW,236,5.0,14.0,68,0.00,,,0.00,Wunderground v.1.15,2013-01-05 09:58:00,
2013-01-05 05:04:00,31.3,22.0,29.94,West,264,5.0,14.0,68,0.00,,,0.00,Wunderground v.1.15,2013-01-05 10:04:00,
2013-01-05 05:10:00,31.3,22.0,29.95,WSW,252,5.0,5.0,68,0.00,,,0.00,Wunderground v.1.15,2013-01-05 10:10:00,
2013-01-05 05:16:00,31.4,22.1,29.95,WSW,252,5.0,14.0,68,0.00,,,0.00,Wunderground v.1.15,2013-01-05 10:16:00,
2013-01-05 05:22:00,31.4,22.1,29.95,SW,227,5.0,12.0,68,0.00,,,0.00,Wunderground v.1.15,2013-01-05 10:22:00,
2013-01-05 05:28:00,31.5,22.1,29.95,West,274,6.0,12.0,68,0.00,,,0.00,Wunderground v.1.15,2013-01-05 10:28:00,
2013-01-05 05:34:00,31.4,22.1,29.96,West,265,6.0,12.0,68,0.00,,,0.00,Wunderground v.1.15,2013-01-05 10:34:00,
2013-01-05 05:40:00,31.3,22.0,29.96,SW,218,6.0,6.0,68,0.00,,,0.00,Wunderground v.1.15,2013-01-05 10:40:00,
2013-01-05 05:46:00,31.2,21.9,29.97,West,277,5.0,12.0,68,0.00,,,0.00,Wunderground v.1.15,2013-01-05 10:46:00,
2013-01-05 05:52:00,31.2,21.9,29.97,WSW,251,4.0,14.0,68,0.00,,,0.00,Wunderground v.1.15,2013-01-05 10:52:00,
2013-01-05 05:58:00,31.2,22.2,29.97,West,270,5.0,14.0,69,0.00,,,0.00,Wunderground v.1.15,2013-01-05 10:58:00,
2013-01-05 06:04:00,31.1,22.1,29.98,West,271,5.0,14.0,69,0.00,,,0.00,Wunderground v.1.15,2013-01-05 11:04:00,
2013-01-05 06:10:00,31.1,22.1,29.98,West,272,5.0,5.0,69,0.00,,,0.00,Wunderground v.1.15,2013-01-05 11:10:00,
2013-01-05 06:16:00,31.1,22.1,29.98,SW,222,5.0,14.0,69,0.00,,,0.00,Wunderground v.1.15,2013-01-05 11:16:00,
2013-01-05 06:22:00,31.1,22.1,29.99,WSW,242,6.0,7.0,69,0.00,,,0.00,Wunderground v.1.15,2013-01-05 11:22:00,
2013-01-05 06:28:00,31.0,22.0,29.99,SW,230,6.0,12.0,69,0.00,,,0.00,Wunderground v.1.15,2013-01-05 11:28:00,
2013-01-05 06:34:00,31.0,22.0,29.99,West,259,5.0,12.0,69,0.00,,,0.00,Wunderground v.1.15,2013-01-05 11:34:00,
2013-01-05 06:40:00,30.9,22.3,29.99,West,277,6.0,12.0,70,0.00,,,0.00,Wunderground v.1.15,2013-01-05 11:40:00,
2013-01-05 06:46:00,30.9,22.3,30.00,WSW,238,6.0,12.0,70,0.00,,,0.00,Wunderground v.1.15,2013-01-05 11:46:00,
2013-01-05 06:52:00,30.9,22.3,30.00,SW,236,5.0,15.0,70,0.00,,,0.00,Wunderground v.1.15,2013-01-05 11:52:00,
2013-01-05 06:58:00,30.9,22.3,30.01,WNW,288,6.0,15.0,70,0.00,,,0.00,Wunderground v.1.15,2013-01-05 11:58:00,
2013-01-05 07:04:00,30.8,22.2,30.01,WSW,256,5.0,15.0,70,0.00,,,0.00,Wunderground v.1.15,2013-01-05 12:04:00,
2013-01-05 07:10:00,30.8,22.2,30.01,WSW,257,5.0,15.0,70,0.00,,,0.00,Wunderground v.1.15,2013-01-05 12:10:00,
2013-01-05 07:16:00,30.8,22.2,30.02,West,273,5.0,15.0,70,0.00,,,0.00,Wunderground v.1.15,2013-01-05 12:16:00,
2013-01-05 07:22:00,30.8,22.2,30.02,West,265,6.0,15.0,70,0.00,,,0.00,Wunderground v.1.15,2013-01-05 12:22:00,
2013-01-05 07:28:00,30.8,22.2,30.03,WSW,248,5.0,15.0,70,0.00,,,0.00,Wunderground v.1.15,2013-01-05 12:28:00,
2013-01-05 07:34:00,30.7,22.4,30.03,WNW,285,4.0,15.0,71,0.00,,,0.00,Wunderground v.1.15,2013-01-05 12:34:00,
2013-01-05 07:40:00,30.8,22.5,30.03,West,271,5.0,15.0,71,0.00,,,0.00,Wunderground v.1.15,2013-01-05 12:40:00,
2013-01-05 07:46:00,30.9,22.6,30.04,WSW,246,5.0,15.0,71,0.00,,,0.00,Wunderground v.1.15,2013-01-05 12:46:00,
2013-01-05 07:52:00,31.0,22.7,30.05,SW,215,5.0,13.0,71,0.00,,,0.00,Wunderground v.1.15,2013-01-05 12:52:00,
2013-01-05 07:58:00,31.2,22.5,30.05,WSW,242,5.0,13.0,70,0.00,,,0.00,Wunderground v.1.15,2013-01-05 12:58:00,
2013-01-05 08:04:00,31.2,22.5,30.05,WSW,254,5.0,13.0,70,0.00,,,0.00,Wunderground v.1.15,2013-01-05 13:04:00,
2013-01-05 08:10:00,31.5,22.8,30.06,West,279,5.0,13.0,70,0.00,,,0.00,Wunderground v.1.15,2013-01-05 13:10:00,
2013-01-05 08:16:00,31.7,23.0,30.06,WSW,237,6.0,13.0,70,0.00,,,0.00,Wunderground v.1.15,2013-01-05 13:16:00,
2013-01-05 08:22:00,32.0,23.0,30.06,WSW,250,6.0,9.0,69,0.00,,,0.00,Wunderground v.1.15,2013-01-05 13:22:00,
2013-01-05 08:28:00,32.3,23.3,30.06,SW,228,6.0,14.0,69,0.00,,,0.00,Wunderground v.1.15,2013-01-05 13:28:00,
2013-01-05 08:34:00,32.6,23.2,30.06,WSW,244,6.0,14.0,68,0.00,,,0.00,Wunderground v.1.15,2013-01-05 13:34:00,
2013-01-05 08:40:00,32.9,23.5,30.07,SW,236,5.0,5.0,68,0.00,,,0.00,Wunderground v.1.15,2013-01-05 13:40:00,
2013-01-05 08:46:00,33.2,23.4,30.07,WNW,302,7.0,14.0,67,0.00,,,0.00,Wunderground v.1.15,2013-01-05 13:46:00,
2013-01-05 08:52:00,33.5,23.7,30.08,WSW,241,8.0,18.0,67,0.00,,,0.00,Wunderground v.1.15,2013-01-05 13:52:00,
2013-01-05 08:58:00,33.8,23.6,30.08,SW,234,7.0,18.0,66,0.00,,,0.00,Wunderground v.1.15,2013-01-05 13:58:00,
2013-01-05 09:04:00,34.1,23.9,30.09,WNW,289,7.0,18.0,66,0.00,,,0.00,Wunderground v.1.15,2013-01-05 14:04:00,
2013-01-05 09:10:00,34.4,23.8,30.09,SW,235,6.0,6.0,65,0.00,,,0.00,Wunderground v.1.15,2013-01-05 14:10:00,
2013-01-05 09:16:00,34.7,24.1,30.09,West,261,5.0,18.0,65,0.00,,,0.00,Wunderground v.1.15,2013-01-05 14:16:00,
2013-01-05 09:22:00,35.0,24.4,30.10,West,277,5.0,8.0,65,0.00,,,0.00,Wunderground v.1.15,2013-01-05 14:22:00,
2013-01-05 09:28:00,35.2,24.2,30.10,SW,224,6.0,15.0,64,0.00,,,0.00,Wunderground v.1.15,2013-01-05 14:28:00,
2013-01-05 09:34:00,35.5,24.1,30.11,WNW,300,7.0,15.0,63,0.00,,,0.00,Wunderground v.1.15,2013-01-05 14:34:00,
2013-01-05 09:40:00,35.8,24.4,30.11,WNW,302,5.0,15.0,63,0.00,,,0.00,Wunderground v.1.15,2013-01-05 14:40:00,
2013-01-05 09:46:00,36.1,24.7,30.12,WSW,238,5.0,15.0,63,0.00,,,0.00,Wunderground v.1.15,2013-01-05 14:46:00,
2013-01-05 09:52:00,36.5,24.7,30.12,West,259,3.0,5.0,62,0.00,,,0.00,Wunderground v.1.15,2013-01-05 14:52:00,
2013-01-05 09:58:00,36.7,24.9,30.13,NNW,331,5.0,16.0,62,0.00,,,0.00,Wunderground v.1.15,2013-01-05 14:58:00,
2013-01-05 10:04:00,36.9,24.7,30.12,West,269,6.0,12.0,61,0.00,,,0.00,Wunderground v.1.15,2013-01-05 15:04:00,
2013-01-05 10:10:00,37.1,24.5,30.12,SW,234,6.0,16.0,60,0.00,,,0.00,Wunderground v.1.15,2013-01-05 15:10:00,
2013-01-05 10:16:00,37.3,24.7,30.12,WSW,250,6.0,16.0,60,0.00,,,0.00,Wunderground v.1.15,2013-01-05 15:16:00,
2013-01-05 10:22:00,37.7,25.1,30.13,West,281,4.0,6.0,60,0.00,,,0.00,Wunderground v.1.15,2013-01-05 15:22:00,
2013-01-05 10:28:00,38.1,25.0,30.12,WNW,292,5.0,16.0,59,0.00,,,0.00,Wunderground v.1.15,2013-01-05 15:28:00,
2013-01-05 10:34:00,38.4,25.3,30.12,SW,229,5.0,16.0,59,0.00,,,0.00,Wunderground v.1.15,2013-01-05 15:34:00,
2013-01-05 10:40:00,38.7,24.8,30.12,West,279,6.0,6.0,57,0.00,,,0.01,Wunderground v.1.15,2013-01-05 15:40:00,
2013-01-05 10:46:00,39.1,25.1,30.12,NW,309,5.0,16.0,57,0.00,,,0.01,Wunderground v.1.15,2013-01-05 15:46:00,
2013-01-05 10:52:00,39.5,25.1,30.12,WNW,288,3.0,16.0,56,0.00,,,0.01,Wunderground v.1.15,2013-01-05 15:52:00,
2013-01-05 10:58:00,39.8,24.9,30.11,NW,309,4.0,16.0,55,0.00,,,0.01,Wunderground v.1.15,2013-01-05 15:58:00,
2013-01-05 11:04:00,39.7,24.8,30.11,WNW,292,6.0,16.0,55,0.00,,,0.01,Wunderground v.1.15,2013-01-05 16:04:00,
2013-01-05 11:10:00,39.8,24.5,30.11,WSW,257,6.0,6.0,54,0.00,,,0.01,Wunderground v.1.15,2013-01-05 16:10:00,
2013-01-05 11:16:00,40.0,24.7,30.11,West,277,5.0,16.0,54,0.00,,,0.01,Wunderground v.1.15,2013-01-05 16:16:00,
2013-01-05 11:22:00,40.2,24.4,30.11,WNW,285,5.0,15.0,53,0.00,,,0.02,Wunderground v.1.15,2013-01-05 16:22:00,
2013-01-05 11:28:00,40.5,24.7,30.11,WNW,290,6.0,15.0,53,0.00,,,0.02,Wunderground v.1.15,2013-01-05 16:28:00,
2013-01-05 11:34:00,40.7,24.4,30.11,NW,324,6.0,15.0,52,0.00,,,0.02,Wunderground v.1.15,2013-01-05 16:34:00,
2013-01-05 11:40:00,40.9,24.6,30.12,North,10,6.0,15.0,52,0.00,,,0.02,Wunderground v.1.15,2013-01-05 16:40:00,
2013-01-05 11:46:00,41.0,24.2,30.12,WNW,298,5.0,15.0,51,0.00,,,0.02,Wunderground v.1.15,2013-01-05 16:46:00,
2013-01-05 11:52:00,41.0,24.7,30.12,NNW,345,5.0,15.0,52,0.00,,,0.02,Wunderground v.1.15,2013-01-05 16:52:00,
2013-01-05 11:58:00,41.3,24.5,30.12,WNW,287,4.0,15.0,51,0.00,,,0.02,Wunderground v.1.15,2013-01-05 16:58:00,
2013-01-05 12:04:00,41.3,24.0,30.11,NW,308,5.0,15.0,50,0.00,,,0.02,Wunderground v.1.15,2013-01-05 17:04:00,
2013-01-05 12:10:00,41.2,24.4,30.11,West,279,6.0,6.0,51,0.00,,,0.02,Wunderground v.1.15,2013-01-05 17:10:00,
2013-01-05 12:16:00,41.4,24.6,30.12,NW,311,5.0,15.0,51,0.00,,,0.02,Wunderground v.1.15,2013-01-05 17:16:00,
2013-01-05 12:22:00,41.5,23.7,30.11,WNW,302,5.0,19.0,49,0.00,,,0.02,Wunderground v.1.15,2013-01-05 17:22:00,
2013-01-05 12:28:00,41.5,23.7,30.11,West,279,5.0,19.0,49,0.00,,,0.02,Wunderground v.1.15,2013-01-05 17:28:00,
2013-01-05 12:34:00,41.6,23.8,30.11,NW,326,5.0,19.0,49,0.00,,,0.02,Wunderground v.1.15,2013-01-05 17:34:00,
2013-01-05 12:40:00,41.7,23.4,30.11,WNW,291,6.0,19.0,48,0.00,,,0.02,Wunderground v.1.15,2013-01-05 17:40:00,
2013-01-05 12:46:00,41.7,22.9,30.12,WNW,298,6.0,19.0,47,0.00,,,0.02,Wunderground v.1.15,2013-01-05 17:46:00,
2013-01-05 12:52:00,41.8,23.0,30.12,WNW,299,7.0,9.0,47,0.00,,,0.02,Wunderground v.1.15,2013-01-05 17:52:00,
2013-01-05 12:58:00,41.9,23.6,30.12,NNE,30,5.0,17.0,48,0.00,,,0.02,Wunderground v.1.15,2013-01-05 17:58:00,
2013-01-05 13:04:00,42.0,23.2,30.13,NW,314,5.0,17.0,47,0.00,,,0.02,Wunderground v.1.15,2013-01-05 18:04:00,
2013-01-05 13:10:00,42.2,23.4,30.13,NNE,32,5.0,17.0,47,0.00,,,0.02,Wunderground v.1.15,2013-01-05 18:10:00,
2013-01-05 13:16:00,42.3,23.0,30.13,WNW,293,5.0,17.0,46,0.00,,,0.02,Wunderground v.1.15,2013-01-05 18:16:00,
2013-01-05 13:22:00,42.5,23.2,30.13,NW,313,4.0,6.0,46,0.00,,,0.02,Wunderground v.1.15,2013-01-05 18:22:00,
2013-01-05 13:28:00,42.7,22.8,30.12,WNW,287,4.0,14.0,45,0.00,,,0.02,Wunderground v.1.15,2013-01-05 18:28:00,
2013-01-05 13:34:00,42.6,22.7,30.12,NW,306,5.0,14.0,45,0.00,,,0.02,Wunderground v.1.15,2013-01-05 18:34:00,
2013-01-05 13:40:00,42.9,23.0,30.12,North,360,4.0,4.0,45,0.00,,,0.02,Wunderground v.1.15,2013-01-05 18:40:00,
2013-01-05 13:46:00,42.8,22.9,30.12,North,360,5.0,14.0,45,0.00,,,0.03,Wunderground v.1.15,2013-01-05 18:46:00,
2013-01-05 13:52:00,42.6,22.2,30.12,NNW,327,5.0,16.0,44,0.00,,,0.03,Wunderground v.1.15,2013-01-05 18:52:00,
2013-01-05 13:58:00,42.5,22.6,30.13,WNW,303,5.0,16.0,45,0.00,,,0.03,Wunderground v.1.15,2013-01-05 18:58:00,
2013-01-05 14:04:00,42.6,22.7,30.13,NE,36,4.0,16.0,45,0.00,,,0.03,Wunderground v.1.15,2013-01-05 19:04:00,
2013-01-05 14:10:00,42.7,22.8,30.13,North,5,4.0,16.0,45,0.00,,,0.03,Wunderground v.1.15,2013-01-05 19:10:00,
2013-01-05 14:16:00,42.7,22.3,30.14,NNE,13,4.0,16.0,44,0.00,,,0.03,Wunderground v.1.15,2013-01-05 19:16:00,
2013-01-05 14:22:00,42.7,21.7,30.14,WNW,300,5.0,14.0,43,0.00,,,0.03,Wunderground v.1.15,2013-01-05 19:22:00,
2013-01-05 14:28:00,42.5,22.6,30.14,North,360,4.0,14.0,45,0.00,,,0.03,Wunderground v.1.15,2013-01-05 19:28:00,
2013-01-05 14:34:00,42.3,23.0,30.14,NNE,17,4.0,14.0,46,0.00,,,0.03,Wunderground v.1.15,2013-01-05 19:34:00,
2013-01-05 14:40:00,42.2,22.9,30.14,NE,40,4.0,14.0,46,0.00,,,0.03,Wunderground v.1.15,2013-01-05 19:40:00,
2013-01-05 14:46:00,42.4,22.5,30.14,NNE,14,3.0,14.0,45,0.00,,,0.03,Wunderground v.1.15,2013-01-05 19:46:00,
2013-01-05 14:52:00,42.4,22.0,30.14,NW,304,3.0,13.0,44,0.00,,,0.03,Wunderground v.1.15,2013-01-05 19:52:00,
2013-01-05 14:58:00,42.2,21.8,30.15,North,5,3.0,13.0,44,0.00,,,0.03,Wunderground v.1.15,2013-01-05 19:58:00,
2013-01-05 15:04:00,42.0,21.6,30.15,WNW,283,3.0,5.0,44,0.00,,,0.03,Wunderground v.1.15,2013-01-05 20:04:00,
2013-01-05 15:10:00,41.9,22.1,30.15,NNE,22,3.0,13.0,45,0.00,,,0.03,Wunderground v.1.15,2013-01-05 20:10:00,
2013-01-05 15:16:00,41.9,22.1,30.16,North,9,3.0,13.0,45,0.00,,,0.03,Wunderground v.1.15,2013-01-05 20:16:00,
2013-01-05 15:22:00,42.1,22.3,30.16,NW,305,2.0,11.0,45,0.00,,,0.03,Wunderground v.1.15,2013-01-05 20:22:00,
2013-01-05 15:28:00,42.3,21.9,30.17,North,355,1.0,11.0,44,0.00,,,0.03,Wunderground v.1.15,2013-01-05 20:28:00,
2013-01-05 15:34:00,42.1,21.7,30.17,NNE,22,2.0,11.0,44,0.00,,,0.03,Wunderground v.1.15,2013-01-05 20:34:00,
2013-01-05 15:40:00,41.8,21.5,30.17,WNW,302,2.0,11.0,44,0.00,,,0.03,Wunderground v.1.15,2013-01-05 20:40:00,
2013-01-05 15:46:00,41.4,21.6,30.17,WNW,294,2.0,11.0,45,0.00,,,0.03,Wunderground v.1.15,2013-01-05 20:46:00,
2013-01-05 15:52:00,41.3,22.1,30.17,WNW,295,1.0,7.0,46,0.00,,,0.03,Wunderground v.1.15,2013-01-05 20:52:00,
2013-01-05 15:58:00,40.9,22.2,30.18,WNW,300,1.0,7.0,47,0.00,,,0.03,Wunderground v.1.15,2013-01-05 20:58:00,
2013-01-05 16:04:00,40.5,21.8,30.18,WNW,300,1.0,7.0,47,0.00,,,0.03,Wunderground v.1.15,2013-01-05 21:04:00,
2013-01-05 16:10:00,40.0,21.9,30.18,WNW,300,0.0,7.0,48,0.00,,,0.03,Wunderground v.1.15,2013-01-05 21:10:00,
2013-01-05 16:16:00,39.7,22.1,30.18,WNW,300,0.0,7.0,49,0.00,,,0.03,Wunderground v.1.15,2013-01-05 21:16:00,
2013-01-05 16:22:00,39.3,21.7,30.18,WNW,300,0.0,7.0,49,0.00,,,0.03,Wunderground v.1.15,2013-01-05 21:22:00,
2013-01-05 16:28:00,38.9,21.8,30.19,WNW,300,0.0,7.0,50,0.00,,,0.03,Wunderground v.1.15,2013-01-05 21:28:00,
2013-01-05 16:34:00,38.5,21.5,30.19,WNW,300,0.0,7.0,50,0.00,,,0.03,Wunderground v.1.15,2013-01-05 21:34:00,
2013-01-05 16:40:00,38.2,21.6,30.19,WNW,300,0.0,7.0,51,0.00,,,0.03,Wunderground v.1.15,2013-01-05 21:40:00,
2013-01-05 16:46:00,37.7,21.6,30.20,WNW,300,0.0,7.0,52,0.00,,,0.03,Wunderground v.1.15,2013-01-05 21:46:00,
2013-01-05 16:52:00,37.0,21.0,30.20,WNW,300,0.0,3.0,52,0.00,,,0.03,Wunderground v.1.15,2013-01-05 21:52:00,
2013-01-05 16:58:00,36.4,21.3,30.20,WNW,300,0.0,3.0,54,0.00,,,0.03,Wunderground v.1.15,2013-01-05 21:58:00,
2013-01-05 17:04:00,36.0,21.8,30.21,WNW,300,0.0,3.0,56,0.00,,,0.03,Wunderground v.1.15,2013-01-05 22:04:00,
2013-01-05 17:10:00,35.6,21.4,30.20,WNW,300,0.0,3.0,56,0.00,,,0.03,Wunderground v.1.15,2013-01-05 22:10:00,
2013-01-05 17:16:00,35.2,21.1,30.20,WNW,300,0.0,3.0,56,0.00,,,0.03,Wunderground v.1.15,2013-01-05 22:16:00,
2013-01-05 17:22:00,34.8,21.1,30.20,WNW,300,0.0,0.0,57,0.00,,,0.03,Wunderground v.1.15,2013-01-05 22:22:00,
2013-01-05 17:28:00,34.4,21.1,30.21,WNW,300,0.0,0.0,58,0.00,,,0.03,Wunderground v.1.15,2013-01-05 22:28:00,
2013-01-05 17:34:00,33.9,21.1,30.21,WNW,300,0.0,0.0,59,0.00,,,0.03,Wunderground v.1.15,2013-01-05 22:34:00,
2013-01-05 17:40:00,33.3,20.5,30.21,WNW,300,0.0,0.0,59,0.00,,,0.03,Wunderground v.1.15,2013-01-05 22:40:00,
2013-01-05 17:46:00,33.2,20.8,30.22,WNW,300,0.0,0.0,60,0.00,,,0.03,Wunderground v.1.15,2013-01-05 22:46:00,
2013-01-05 17:52:00,33.0,20.6,30.22,WNW,300,0.0,0.0,60,0.00,,,0.03,Wunderground v.1.15,2013-01-05 22:52:00,
2013-01-05 17:58:00,32.6,20.6,30.21,WNW,300,0.0,0.0,61,0.00,,,0.03,Wunderground v.1.15,2013-01-05 22:58:00,
2013-01-05 18:04:00,32.2,20.2,30.22,WNW,300,0.0,0.0,61,0.00,,,0.03,Wunderground v.1.15,2013-01-05 23:04:00,
2013-01-05 18:10:00,31.8,20.3,30.22,WNW,300,0.0,0.0,62,0.00,,,0.03,Wunderground v.1.15,2013-01-05 23:10:00,
2013-01-05 18:16:00,31.4,20.2,30.22,WNW,300,0.0,0.0,63,0.00,,,0.03,Wunderground v.1.15,2013-01-05 23:16:00,
2013-01-05 18:22:00,31.1,20.7,30.22,WNW,300,0.0,0.0,65,0.00,,,0.03,Wunderground v.1.15,2013-01-05 23:22:00,
2013-01-05 18:28:00,30.9,20.1,30.22,WNW,300,0.0,0.0,64,0.00,,,0.03,Wunderground v.1.15,2013-01-05 23:28:00,
2013-01-05 18:34:00,30.7,20.7,30.23,WNW,300,0.0,0.0,66,0.00,,,0.03,Wunderground v.1.15,2013-01-05 23:34:00,
2013-01-05 18:40:00,30.7,20.7,30.23,WNW,300,0.0,0.0,66,0.00,,,0.03,Wunderground v.1.15,2013-01-05 23:40:00,
2013-01-05 18:46:00,30.6,20.2,30.23,WNW,300,0.0,0.0,65,0.00,,,0.03,Wunderground v.1.15,2013-01-05 23:46:00,
2013-01-05 18:52:00,30.4,20.7,30.24,WNW,300,0.0,1.0,67,0.00,,,0.03,Wunderground v.1.15,2013-01-05 23:52:00,
2013-01-05 18:58:00,30.1,20.8,30.24,WNW,300,0.0,2.0,68,0.00,,,0.03,Wunderground v.1.15,2013-01-05 23:58:00,
2013-01-05 19:04:00,29.8,20.9,30.25,WNW,300,0.0,1.0,69,0.00,,,0.03,Wunderground v.1.15,2013-01-06 00:04:00,
2013-01-05 19:10:00,29.6,20.7,30.25,WNW,300,0.0,1.0,69,0.00,,,0.03,Wunderground v.1.15,2013-01-06 00:10:00,
2013-01-05 19:16:00,29.2,20.6,30.25,WNW,300,0.0,1.0,70,0.00,,,0.03,Wunderground v.1.15,2013-01-06 00:16:00,
2013-01-05 19:22:00,28.9,20.3,30.25,WNW,300,0.0,3.0,70,0.00,,,0.03,Wunderground v.1.15,2013-01-06 00:22:00,
2013-01-05 19:28:00,28.6,20.4,30.25,WNW,300,0.0,3.0,71,0.00,,,0.03,Wunderground v.1.15,2013-01-06 00:28:00,
2013-01-05 19:34:00,28.6,20.7,30.26,WNW,300,0.0,3.0,72,0.00,,,0.03,Wunderground v.1.15,2013-01-06 00:34:00,
2013-01-05 19:40:00,28.6,20.4,30.25,WNW,300,0.0,3.0,71,0.00,,,0.03,Wunderground v.1.15,2013-01-06 00:40:00,
2013-01-05 19:46:00,28.7,20.5,30.25,WNW,300,0.0,3.0,71,0.00,,,0.03,Wunderground v.1.15,2013-01-06 00:46:00,
2013-01-05 19:52:00,28.7,20.5,30.25,WNW,300,0.0,0.0,71,0.00,,,0.03,Wunderground v.1.15,2013-01-06 00:52:00,
2013-01-05 19:58:00,28.9,20.3,30.25,WNW,300,0.0,0.0,70,0.00,,,0.03,Wunderground v.1.15,2013-01-06 00:58:00,
2013-01-05 20:04:00,28.9,20.3,30.24,WNW,300,0.0,0.0,70,0.00,,,0.03,Wunderground v.1.15,2013-01-06 01:04:00,
2013-01-05 20:10:00,28.8,19.9,30.24,WNW,300,0.0,0.0,69,0.00,,,0.03,Wunderground v.1.15,2013-01-06 01:10:00,
2013-01-05 20:16:00,28.9,20.0,30.24,WNW,300,0.0,0.0,69,0.00,,,0.03,Wunderground v.1.15,2013-01-06 01:16:00,
2013-01-05 20:22:00,28.8,20.2,30.24,WNW,300,0.0,2.0,70,0.00,,,0.03,Wunderground v.1.15,2013-01-06 01:22:00,
2013-01-05 20:28:00,28.6,20.4,30.23,WNW,300,0.0,2.0,71,0.00,,,0.03,Wunderground v.1.15,2013-01-06 01:28:00,
2013-01-05 20:34:00,28.3,20.7,30.24,WNW,300,0.0,2.0,73,0.00,,,0.03,Wunderground v.1.15,2013-01-06 01:34:00,
2013-01-05 20:40:00,27.9,21.3,30.24,WNW,300,1.0,3.0,76,0.00,,,0.03,Wunderground v.1.15,2013-01-06 01:40:00,
2013-01-05 20:46:00,27.9,21.3,30.24,WNW,295,2.0,5.0,76,0.00,,,0.03,Wunderground v.1.15,2013-01-06 01:46:00,
2013-01-05 20:52:00,28.5,21.3,30.24,WNW,295,1.0,5.0,74,0.00,,,0.03,Wunderground v.1.15,2013-01-06 01:52:00,
2013-01-05 20:58:00,28.7,20.8,30.23,WNW,295,0.0,5.0,72,0.00,,,0.03,Wunderground v.1.15,2013-01-06 01:58:00,
2013-01-05 21:04:00,28.5,20.9,30.23,WNW,295,0.0,5.0,73,0.00,,,0.03,Wunderground v.1.15,2013-01-06 02:04:00,
2013-01-05 21:10:00,28.5,20.9,30.24,WNW,295,0.0,5.0,73,0.00,,,0.03,Wunderground v.1.15,2013-01-06 02:10:00,
2013-01-05 21:16:00,28.7,21.1,30.23,WNW,295,0.0,5.0,73,0.00,,,0.03,Wunderground v.1.15,2013-01-06 02:16:00,
2013-01-05 21:22:00,28.7,20.8,30.23,WNW,295,0.0,4.0,72,0.00,,,0.03,Wunderground v.1.15,2013-01-06 02:22:00,
2013-01-05 21:28:00,28.8,20.9,30.24,WNW,295,0.0,4.0,72,0.00,,,0.03,Wunderground v.1.15,2013-01-06 02:28:00,
2013-01-05 21:34:00,28.8,20.9,30.23,WNW,295,0.0,4.0,72,0.00,,,0.03,Wunderground v.1.15,2013-01-06 02:34:00,
2013-01-05 21:40:00,28.5,20.6,30.23,WNW,295,0.0,4.0,72,0.00,,,0.03,Wunderground v.1.15,2013-01-06 02:40:00,
2013-01-05 21:46:00,28.3,20.7,30.23,WNW,295,0.0,4.0,73,0.00,,,0.03,Wunderground v.1.15,2013-01-06 02:46:00,
2013-01-05 21:52:00,28.3,20.7,30.24,WNW,295,1.0,4.0,73,0.00,,,0.03,Wunderground v.1.15,2013-01-06 02:52:00,
2013-01-05 21:58:00,28.6,20.7,30.24,WNW,295,1.0,4.0,72,0.00,,,0.03,Wunderground v.1.15,2013-01-06 02:58:00,
2013-01-05 22:04:00,28.8,20.9,30.24,WNW,295,0.0,4.0,72,0.00,,,0.03,Wunderground v.1.15,2013-01-06 03:04:00,
2013-01-05 22:10:00,28.8,20.6,30.24,WNW,295,0.0,4.0,71,0.00,,,0.03,Wunderground v.1.15,2013-01-06 03:10:00,
2013-01-05 22:16:00,29.0,20.8,30.24,WNW,295,0.0,4.0,71,0.00,,,0.03,Wunderground v.1.15,2013-01-06 03:16:00,
2013-01-05 22:22:00,28.9,20.3,30.23,WNW,295,0.0,4.0,70,0.00,,,0.03,Wunderground v.1.15,2013-01-06 03:22:00,
2013-01-05 22:28:00,28.7,20.1,30.24,WNW,295,0.0,4.0,70,0.00,,,0.03,Wunderground v.1.15,2013-01-06 03:28:00,
2013-01-05 22:34:00,28.2,20.3,30.24,WNW,295,0.0,4.0,72,0.00,,,0.03,Wunderground v.1.15,2013-01-06 03:34:00,
2013-01-05 22:40:00,27.6,20.1,30.25,WNW,295,0.0,4.0,73,0.00,,,0.03,Wunderground v.1.15,2013-01-06 03:40:00,
2013-01-05 22:46:00,27.1,20.5,30.25,WNW,295,0.0,4.0,76,0.00,,,0.03,Wunderground v.1.15,2013-01-06 03:46:00,
2013-01-05 22:52:00,26.6,20.1,30.23,WNW,295,0.0,0.0,76,0.00,,,0.03,Wunderground v.1.15,2013-01-06 03:52:00,
2013-01-05 22:58:00,26.3,20.4,30.23,WNW,295,0.0,2.0,78,0.00,,,0.03,Wunderground v.1.15,2013-01-06 03:58:00,
2013-01-05 23:04:00,26.3,20.4,30.22,WNW,295,0.0,0.0,78,0.00,,,0.03,Wunderground v.1.15,2013-01-06 04:04:00,
2013-01-05 23:10:00,26.3,20.4,30.22,WNW,295,0.0,0.0,78,0.00,,,0.03,Wunderground v.1.15,2013-01-06 04:10:00,
2013-01-05 23:16:00,26.4,20.5,30.22,WNW,295,0.0,0.0,78,0.00,,,0.03,Wunderground v.1.15,2013-01-06 04:16:00,
2013-01-05 23:22:00,26.6,20.7,30.21,WNW,295,0.0,2.0,78,0.00,,,0.03,Wunderground v.1.15,2013-01-06 04:22:00,
2013-01-05 23:28:00,26.8,20.6,30.22,WNW,295,0.0,2.0,77,0.00,,,0.03,Wunderground v.1.15,2013-01-06 04:28:00,
2013-01-05 23:34:00,26.8,20.2,30.21,WNW,295,0.0,2.0,76,0.00,,,0.03,Wunderground v.1.15,2013-01-06 04:34:00,
2013-01-05 23:40:00,26.7,20.1,30.21,WNW,295,0.0,2.0,76,0.00,,,0.03,Wunderground v.1.15,2013-01-06 04:40:00,
2013-01-05 23:46:00,26.7,20.1,30.20,WNW,295,0.0,2.0,76,0.00,,,0.03,Wunderground v.1.15,2013-01-06 04:46:00,
2013-01-05 23:52:00,26.5,20.3,30.20,WNW,295,0.0,0.0,77,0.00,,,0.03,Wunderground v.1.15,2013-01-06 04:52:00,
2013-01-05 23:58:00,26.6,20.7,30.20,WNW,295,0.0,0.0,78,0.00,,,0.03,Wunderground v.1.15,2013-01-06 04:58:00,